SL-12 R/B(AUX MOTOR), 15335

Orbit data source: Space-Track

SL-12 R/B(AUX MOTOR), 15335 is space debris in LEO originally from a launch on Fri, 28 Sep 1984 UTC launched from the Tyuratam Missile And Space Complex (TTMTR). Debris objects in space refer to the collection of defunct objects orbiting the Earth. Examples of debris include non-operational satellites, rocket bodies, and fragments generated from explosions, collisions, or faulty payload assembly.

Loading next visibility...
Identifier
15335, 1984-106C
Orbit
LEO
Country
Flag of CISCIS
Related business
Manufacturer
NPO Energiya
Mission
Spacecraft
Bus & Motor
SOZ, Unknown motor
Mass
110 kg wet, 56 kg dry
Launch date (UTC)
1984-09-28 (41 years ago)
Launch vehicle
Unknown
Launch site
Tyuratam Missile And Space Complex (TTMTR)
Object type
Payload
Rocket body
Debris
Shape & HBR
Cyl, 0.6 m
Radar Cross Section
0.660 m², Medium (>0.1 m² and < 1m²)

Expand to show TLE details & history
Last TLE update: 17 hours ago

TLE from 17 hours ago
0 SL-12 R/B(AUX MOTOR)
1 15335U 84106C   25261.61348262  .00000148  00000-0  10355-3 0  9994
2 15335  66.5542 335.4792 0008699  20.3657  88.6217 14.23020789125506
Epoch: 2025-09-18T14:43Z
TLE epoch observation values (Epoch: 2025-09-18T14:43:24.898Z)
Latitude
60.22911°
Longitude
-112.09743°
Altitude
824.401 km
Speed
7.447 km/s
True Right ascension
07h 06m 06s
True Declination
60° 04' 55"
Sunlit
Object was in daylight at epoch
Visualization orbit readout
Latitude
Unknown
Longitude
Unknown
Altitude
Unknown
Speed
Unknown
Apparent Right ascension
Unknown
Apparent Declination
Unknown
Sunlit
N/A
Visualization observer readout
Local Sidereal Time
00:36:35
Azimuth
Unknown
Elevation
Unknown
Doppler factor
Unknown
Orbital elements
Apogee altitude
819.808 km
Perigee altitude
807.296 km
Semi-major axis
7,191.689 km
Eccentricity
0.00087
Inclination
66.5542°
RAAN
335.4792°
Arg. of periapsis
20.3657°
True anomaly
88.72136°
Mean anomaly
88.6217°
Eccentric anomaly
88.67153°
Mean motion
3.55874 °/min
Orbital period
101.16 mins
BSTAR
0.00010355
Loading maneuver chart data...
Computing Atmospheric mass density...
Loading historical data...
Loading historical data...
Loading historical data...
Loading historical data...
Loading historical data...
Loading historical data...
Loading historical data...

Documentation

Showing up to 5 results
|